#timestamp,LO_Frequency,Hit,StdDev 
1669741215.5,286047004.1,N
1669741235.4,286047003.7,N
1669741255.2,286047001.4,N
1669741275.0,286047001.5,N
1669741275.9,286047001.5,N
1669741295.8,286047001.4,N
1669741315.6,286047002.0,N
1669741335.4,286047001.9,N
1669741355.3,286047000.1,N
1669741375.1,286047002.2,N
1669741395.9,286047001.6,N
1669741415.7,286046999.8,N
1669741435.5,286047002.1,N
1669741455.4,286047001.6,N
1669741475.2,286047002.2,N
1669741495.0,286047001.4,N
1669741495.9,286047001.4,N
1669741515.8,286047002.5,N
1669741535.6,286047001.6,N
1669741555.5,286047001.6,N
1669741575.3,286046999.7,N
1669741595.1,286047002.4,N
1669741615.9,286047000.3,N
1669741635.7,286047002.7,N
1669741655.5,286047000.1,N
1669741675.4,286047002.5,N
1669741695.2,286047001.3,N
1669741715.1,286047004.3,Y
1669741716.0,286047004.3,P
1669741735.8,286047000.9,N
1669741755.6,286047001.0,N
1669741775.5,286047000.6,N
1669741795.3,286046998.3,N
1669741815.1,286046999.2,N
1669741835.9,286046999.6,N
1669741855.7,286046999.0,N
1669741875.6,286046996.9,N
1669741895.4,286046997.4,N
1669741915.2,286046996.7,N
1669741935.1,286046997.9,N
1669741936.0,286046997.9,N
1669741955.8,286046996.8,N
1669741975.6,286046997.2,N
1669741995.5,286046999.0,N
1669742015.3,286046999.4,N
1669742035.2,286046998.8,N
1669742055.9,286046998.5,N
1669742075.7,286046998.9,N
1669742095.6,286046999.9,N
1669742115.4,286047001.9,N
1669742135.2,286047001.5,N
1669742155.1,286047000.1,N
1669742156.0,286047000.1,N
1669742175.8,286047002.7,N
1669742195.7,286047001.4,N
1669742215.5,286047000.9,N
1669742235.3,286046999.8,N
1669742255.2,286046999.8,N
1669742275.9,286047000.3,N
1669742295.7,286047001.0,N
1669742315.6,286046998.2,N
1669742335.4,286046999.2,N
1669742355.2,286047001.0,N
1669742375.1,286047000.6,N
1669742376.0,286047000.6,N
1669742395.8,286047000.1,N
1669742415.7,286046998.2,N
1669742435.5,286047000.3,N
1669742455.3,286047002.5,N
1669742475.2,286046998.5,N
1669742495.0,286047000.1,N
1669742495.9,286047000.1,N
1669742515.7,286047000.6,N
1669742535.6,286046999.3,N
1669742555.4,286046998.8,N
1669742575.3,286046998.5,N
1669742595.1,286046999.3,N
1669742596.0,286046999.3,N
1669742615.8,286046997.7,N
1669742635.7,286046997.2,N
1669742655.5,286046998.7,N
1669742675.3,286047000.5,N
1669742695.2,286046999.3,N
1669742715.0,286046999.6,N
1669742715.9,286046999.6,N
1669742735.8,286046999.0,N
1669742755.6,286046998.3,N
1669742775.4,286046998.5,N
1669742795.3,286046998.6,N
1669742815.1,286046978.7,Y
1669742835.9,286046977.9,P
1669742855.7,286046978.4,N
1669742875.5,286046977.9,N
1669742895.4,286046977.9,N
1669742915.2,286046978.2,N
1669742935.0,286046978.4,N
1669742935.9,286046978.4,N
1669742955.8,286046977.3,Y
1669742975.6,286046997.8,P
1669742995.5,286046995.1,N
1669743015.3,286046995.4,N
1669743035.1,286046997.7,N
1669743055.9,286046995.1,N
1669743075.7,286046996.3,N
1669743095.5,286046996.1,N
1669743115.4,286046995.1,N
1669743135.2,286046995.1,N
1669743155.0,286046997.6,N
1669743156.0,286046997.6,N
1669743175.8,286046995.7,N
1669743195.6,286046995.0,N
1669743215.5,286046996.8,N
1669743235.3,286046998.0,N
1669743255.1,286046994.9,N
1669743275.9,286046997.2,N
1669743295.7,286046999.2,N
1669743315.6,286046999.2,N
1669743335.4,286046998.9,N
1669743355.2,286046998.4,N
1669743375.1,286046999.4,N
1669743376.0,286046999.4,N
1669743395.8,286046999.5,N
1669743415.6,286046998.5,N
1669743435.5,286047000.2,N
1669743455.3,286046998.5,N
1669743475.1,286047003.5,N
1669743495.9,286046999.1,N
1669743515.7,286047001.4,N
1669743535.6,286046997.5,N
1669743555.4,286046996.6,N
1669743575.2,286046996.7,N
1669743595.1,286046999.2,N
1669743596.0,286046999.2,N
1669743615.8,286046998.3,N
1669743635.7,286047000.3,N
1669743655.5,286047001.5,N
1669743675.3,286046995.4,N
1669743695.2,286047000.0,N
1669743715.9,286046993.3,Y
1669743735.7,286047007.8,P
1669743755.6,286047004.8,N
1669743775.4,286047005.9,N
1669743795.3,286047003.6,N
1669743815.1,286046999.7,N
1669743816.0,286046999.7,N
1669743835.8,286047002.8,N
1669743855.7,286047002.6,N
1669743875.5,286047006.0,N
1669743895.3,286047003.6,N
1669743915.2,286047004.2,N
1669743935.0,286047005.9,N
1669743935.9,286047005.9,N
1669743955.8,286047002.2,N
1669743975.6,286047001.8,N
1669743995.4,286047004.1,N
1669744015.3,286047002.3,N
1669744035.1,286046999.9,N
1669744055.8,286047000.9,N
1669744075.7,286047002.1,N
1669744095.5,286047000.5,N
1669744115.4,286047000.6,N
1669744135.2,286047004.3,N
1669744155.0,286047001.4,N
1669744155.9,286047001.4,N
1669744175.8,286046999.9,N
1669744195.6,286047002.5,N
1669744215.4,286047001.4,N
1669744235.3,286047004.0,N
1669744255.1,286047001.7,N
1669744275.9,286047004.4,N
1669744295.7,286047004.0,N
1669744315.5,286047002.1,N
1669744335.4,286047003.2,N
1669744355.2,286047006.3,Y
1669744375.0,286047003.0,P
1669744375.9,286047003.0,P
1669744395.8,286047003.0,P
1669744415.6,286047003.1,Y
1669744435.5,286046999.7,P
1669744455.3,286047002.6,N
1669744475.1,286046998.1,N
1669744495.9,286046999.6,N
1669744515.7,286047001.2,N
1669744535.6,286047004.0,N
1669744555.4,286047003.9,N
1669744575.2,286047001.2,N
1669744595.1,286046998.7,N
1669744596.0,286046998.7,N
1669744615.8,286046996.8,N
1669744635.6,286046996.8,N
1669744655.5,286046996.5,N
1669744675.3,286046999.6,N
1669744695.2,286046998.9,N
1669744715.9,286046999.0,N
1669744735.7,286046997.2,N
1669744755.6,286046996.8,N
1669744775.4,286046993.7,N
1669744795.2,286046997.2,N
